Location: Recife
(8.0585°S, 34.8848°W)
Time: 09:55:34
(UTC-03:00)

Altair - Pass Details

Date: 18 April 2026
Orbit: 1501 x 1682 km, 47.2° (Epoch: 20 May)

Event Time Altitude Azimuth Distance (km) Brightness Sun altitude
Rises 06:37:06 0° 206° (SSW) 4,820 9.7 17.4°
Reaches altitude 10° 06:40:37 10° 197° (SSW) 3,859 9.4 18.2°
Maximum altitude 06:49:24 35° 134° (SE) 2,456 9.2 20.3°
Drops below altitude 10° 06:58:17 10° 72° (ENE) 3,934 11.8 22.5°
Sets 07:01:51 0° 64° (ENE) 4,924 11.5 23.3°
